Regional Weather Roundup
Issued by NWS Bismarck, ND

Home | Current Version | Previous Version | Text Only | Print | Product List | Glossary On
Versions: 1 2 3 4 5 6 7 8 9 10 11 12 13 14 15 16 17 18 19 20 21 22 23 24 25 26 27 28 29 30 31 32 33 34 35 36 37 38 39 40 41 42 43 44 45 46 47 48 49 50
000
ASUS43 KBIS 190810
RWRBIS

NWR BROADCAST TEXT
NATIONAL WEATHER SERVICE BISMARCK ND
300 AM CDT FRI SEP 19 2014

NOTE: "FAIR" INDICATES FEW OR NO CLOUDS BELOW 12,000 FEET WITH NO
SIGNIFICANT WEATHER AND/OR OBSTRUCTIONS TO VISIBILITY.


CITY           SKY/WX    TMP DP  RH WIND       PRES   REMARKS
WILLISTON      CLOUDY    61  54  77 SW8       29.58F
MINOT          CLOUDY    68  58  70 SW10      29.54F
MINOT AFB      CLOUDY    68  59  73 W9        29.54F
BISMARCK       CLOUDY    66  60  81 S5        29.64F
DICKINSON      CLOUDY    64  53  67 S10       29.63F
GARRISON         N/A     66  63  90 SW7       29.58F
HETTINGER ARPT CLOUDY    64  54  69 CALM      29.67F
JAMESTOWN      CLOUDY    64  58  80 S15       29.65F
BEACH            N/A     66  54  63 SW13      29.66F
CARRINGTON     FAIR      66  64  94 S9        29.64F
CROSBY         FAIR      63  55  77 SW7       29.55F
HARVEY         FAIR      66  63  88 S8        29.59F
HAZEN          FAIR      66  59  77 SW5       29.60F
LINTON         FAIR      63  63 100 S8        29.72R
MANDAN         FAIR      64  61  88 S9        29.65F
OAKES            N/A     64  59  82 S18G25    29.69F
RUGBY          FAIR      66  63  88 S10       29.55F
STANLEY        PTSUNNY   64  54  68 W3        29.58F
TIOGA          FAIR      64  52  63 SW13      29.60F
WATFORD CITY   FAIR      64  54  68 W5        29.59S
$$

CITY           SKY/WX    TMP DP  RH WIND       PRES   REMARKS
GRAND FORKS    CLOUDY    66  57  72 S21G28    29.62F
GRAND FORKS AF CLOUDY    67  59  75 SW23G30   29.61F
DEVILS LAKE    CLOUDY    66  57  72 S15G24    29.57F
FARGO          CLOUDY    65  55  70 S20G28    29.72F
CANDO          FAIR      66  59  77 S12G18    29.56F
CAVALIER       FAIR      68  59  73 S13       29.55F
GRAFTON        FAIR      68  59  73 S17G23    29.59S
GWINNER        SUNNY     66  57  72 S14       29.73F
LANGDON        FAIR      66  59  77 SW23G29   29.56F
ROLLA          FAIR      66  64  94 SW15G23   29.56F
WALHALLA         N/A     70  64  83 SW16G25   29.53F
$$

CITY           SKY/WX    TMP DP  RH WIND       PRES   REMARKS
ABERDEEN       CLOUDY    65  58  78 S18G29    29.69F
MOBRIDGE       TSTM      68  62  81 W10G25    29.71R
BUFFALO          N/A     64  54  69 SW14      29.67R
RAPID CITY     MOCLDY    70  52  52 N22G29    29.77R
GLASGOW        PTCLDY    62  50  64 W7        29.63R
SIDNEY         CLOUDY    63  55  77 S6        29.61F
WOLF POINT     CLOUDY    57  53  86 W7        29.61R
GLENDIVE       MOCLDY    66  54  63 SW14      29.66S
MILES CITY     CLOUDY    62  53  72 W6        29.70F
BAKER          CLOUDY    62  55  77 SW10      29.72S
$$

CITY           SKY/WX    TMP DP  RH WIND       PRES   REMARKS
BILLINGS       CLOUDY    64  52  64 SW8       29.82F
GREAT FALLS    MOCLDY    60  43  53 SW12      29.78R
REGINA         MOCLDY    55  54  94 W3        29.52S
ESTEVAN        MOCLDY    57  54  88 SW7       29.54F
$$




USA.gov is the U.S. government's official web portal to all federal, state and local government web resources and services.